This is the latest recevied weather packets stored in our database for station/object OE2ATN. If no packets are shown the sender has not sent any weather packets the latest 10 day(s).
| Time | Temp. | Humidity | Pressure | Rain* | Wind** | Luminosity | Snow |
|---|---|---|---|---|---|---|---|
| 1777365755 | 12.78° C | 70% | 1024.4 hPa | 0 mm | - | - | - |
| 1777365454 | 12.22° C | 73% | 1024.4 hPa | 0 mm | - | - | - |
| 1777365155 | 12.22° C | 72% | 1024.5 hPa | 0 mm | - | - | - |
| 1777364855 | 11.67° C | 73% | 1024.5 hPa | 0 mm | - | - | - |
| 1777364554 | 11.67° C | 74% | 1024.5 hPa | 0 mm | - | - | - |
| 1777364255 | 11.67° C | 74% | 1024.6 hPa | 0 mm | - | - | - |
| 1777363954 | 11.67° C | 75% | 1024.5 hPa | 0 mm | - | - | - |
| 1777363655 | 11.11° C | 75% | 1024.6 hPa | 0 mm | - | - | - |
| 1777363354 | 11.11° C | 75% | 1024.7 hPa | 0 mm | - | - | - |
| 1777363055 | 10.56° C | 75% | 1024.7 hPa | 0 mm | - | - | - |
| 1777362755 | 10.56° C | 75% | 1024.7 hPa | 0 mm | - | - | - |
| 1777362455 | 10° C | 75% | 1024.7 hPa | 0 mm | - | - | - |
| 1777362155 | 10° C | 75% | 1024.9 hPa | 0 mm | - | - | - |
| 1777361854 | 10° C | 75% | 1024.8 hPa | 0 mm | - | - | - |
| 1777361555 | 10° C | 75% | 1024.9 hPa | 0 mm | - | - | - |
| 1777361255 | 9.44° C | 73% | 1024.9 hPa | 0 mm | - | - | - |
| 1777360955 | 9.44° C | 74% | 1024.9 hPa | 0 mm | - | - | - |
| 1777360654 | 9.44° C | 71% | 1025.1 hPa | 0 mm | - | - | - |
| 1777360354 | 8.89° C | 73% | 1025.1 hPa | 0 mm | - | - | - |
| 1777360055 | 8.89° C | 71% | 1025.2 hPa | 0 mm | - | - | - |
| 1777359755 | 8.33° C | 72% | 1025.2 hPa | 0 mm | - | - | - |
| 1777359455 | 8.33° C | 73% | 1025.2 hPa | 0 mm | - | - | - |
| 1777359154 | 8.33° C | 73% | 1025.3 hPa | 0 mm | - | - | - |
| 1777358854 | 8.33° C | 73% | 1025.3 hPa | 0 mm | - | - | - |
| 1777358555 | 8.33° C | 72% | 1025.3 hPa | 0 mm | - | - | - |
* Rain latest hour (hover to see other rain measurements)
** Current wind speed in m/s (hover to see current wind gust speed)